Weather History for KLUK - May, 2013

Change the Weather History Date:

Sunday, May 19, 2013

  Actual Average Record
Temperature  
Mean Temperature 72 °F -  
Max Temperature 82 °F 77 °F 93 °F (1962)
Min Temperature 62 °F 55 °F 34 °F (2002)
Cooling Degree Days 7    
Growing Degree Days 22 (Base 50)    
Moisture  
Dew Point 64 °F    
Average Humidity 91    
Maximum Humidity 100    
Minimum Humidity 58    
Precipitation  
Precipitation 0.00 in - - ()
Sea Level Pressure  
Sea Level Pressure 29.98 in    
Wind  
Wind Speed 1 mph (South)    
Max Wind Speed 7 mph    
Max Gust Speed -    
Visibility 4 miles    
Events Fog    
Averages and records for this station are not official NWS values.
T = Trace of Precipitation, MM = Missing Value Source: NWS Daily Summary

Daily Weather History Graph

Daily Weather History Graph

Search for Another Location

Airport or City:

Trip Planner

Search our weather history database for the weather conditions in past years. The results will help you decide how hot, cold, wet, or windy it might be!

Date:

Astronomy

May. 19, 2013 Rise Set
Actual Time 6:21 AM EDT 8:47 PM EDT
Civil Twilight 5:50 AM EDT 9:18 PM EDT
Nautical Twilight 5:12 AM EDT 9:56 PM EDT
Astronomical Twilight 4:31 AM EDT 10:38 PM EDT
Moon 2:53 PM EDT (5/19) 2:41 AM EDT (5/19)
Length of Visible Light 15h 27m
Length of Day
14h 26m
Waxing Gibbous, 65% of the Moon is Illuminated
May 19
Waxing Gibbous
May 25
Full
May 31
Last Quarter
Jun 8
New
Jun 16
First Quarter

Hourly Weather History & Observations

Time (EDT) Temp. Heat Index Dew Point Humidity Pressure Visibility Wind Dir Wind Speed Gust Speed Precip Events Conditions
12:17 AM 64.4 °F - 64.4 °F 100% 30.00 in 1.0 mi Calm Calm - N/A   Clear
12:27 AM 62.6 °F - 62.6 °F 100% 30.00 in 0.8 mi Calm Calm - N/A   Mist
12:37 AM 62.6 °F - 62.6 °F 100% 30.00 in 1.2 mi SSW 3.5 mph - N/A   Scattered Clouds
12:40 AM 62.6 °F - 62.6 °F 100% 30.00 in 3.0 mi Calm Calm - N/A   Mostly Cloudy
12:42 AM 62.6 °F - 62.6 °F 100% 30.00 in 1.8 mi Calm Calm - N/A   Mostly Cloudy
12:49 AM 62.6 °F - 62.6 °F 100% 30.00 in 0.2 mi Calm Calm - N/A Fog Fog
12:53 AM 63.0 °F - 63.0 °F 100% 29.99 in 0.2 mi Calm Calm - N/A Fog Fog
1:05 AM 62.6 °F - 62.6 °F 100% 30.00 in 0.5 mi Calm Calm - N/A Fog Fog
1:24 AM 62.6 °F - 62.6 °F 100% 29.99 in 1.0 mi Calm Calm - N/A   Mist
1:30 AM 62.6 °F - 62.6 °F 100% 29.99 in 0.2 mi Calm Calm - N/A Fog Fog
1:53 AM 63.0 °F - 63.0 °F 100% 29.97 in 0.2 mi Calm Calm - N/A Fog Fog
2:53 AM 62.1 °F - 62.1 °F 100% 29.96 in 0.2 mi Calm Calm - N/A Fog Fog
3:53 AM 63.0 °F - 63.0 °F 100% 29.98 in 0.2 mi Calm Calm - N/A Fog Fog
4:30 AM 62.6 °F - 62.6 °F 100% 29.98 in 0.2 mi Calm Calm - N/A Fog Fog
4:53 AM 63.0 °F - 63.0 °F 100% 29.98 in 0.2 mi Calm Calm - N/A Fog Fog
5:07 AM 62.6 °F - 62.6 °F 100% 29.99 in 0.5 mi Calm Calm - N/A Fog Fog
5:17 AM 62.6 °F - 62.6 °F 100% 30.00 in 2.0 mi Calm Calm - N/A   Overcast
5:26 AM 62.6 °F - 62.6 °F 100% 30.00 in 3.0 mi Calm Calm - N/A   Overcast
5:32 AM 62.6 °F - 62.6 °F 100% 30.00 in 1.8 mi Calm Calm - N/A   Overcast
5:42 AM 62.6 °F - 62.6 °F 100% 30.00 in 0.5 mi Calm Calm - N/A Fog Fog
5:53 AM 62.6 °F - 62.6 °F 100% 30.00 in 0.5 mi Calm Calm - N/A Fog Fog
6:22 AM 62.6 °F - 62.6 °F 100% 30.01 in 1.0 mi NNE 3.5 mph - N/A   Mist
6:32 AM 62.6 °F - 62.6 °F 100% 30.00 in 0.8 mi NNE 3.5 mph - N/A   Overcast
6:53 AM 63.0 °F - 63.0 °F 100% 29.99 in 0.8 mi Calm Calm - N/A   Overcast
7:01 AM 62.6 °F - 62.6 °F 100% 30.00 in 1.0 mi Calm Calm - N/A   Overcast
7:53 AM 64.4 °F - 64.4 °F 100% 30.01 in 1.0 mi Calm Calm - N/A   Overcast
8:53 AM 66.0 °F - 66.0 °F 100% 30.01 in 1.0 mi Calm Calm - N/A   Overcast
9:00 AM 66.2 °F - 66.2 °F 100% 30.01 in 2.0 mi Calm Calm - N/A   Overcast
9:53 AM 68.0 °F - 66.9 °F 96% 30.01 in 2.0 mi South 4.6 mph - N/A   Overcast
10:53 AM 69.1 °F - 66.9 °F 93% 30.02 in 7.0 mi Calm Calm - N/A   Overcast
11:23 AM 71.6 °F - 68.0 °F 88% 30.03 in 9.0 mi SW 3.5 mph - N/A   Overcast
11:53 AM 73.9 °F - 69.1 °F 85% 30.02 in 10.0 mi Variable 3.5 mph - N/A   Mostly Cloudy
12:53 PM 77.0 °F - 69.1 °F 76% 29.99 in 10.0 mi South 3.5 mph - N/A   Mostly Cloudy
1:53 PM 80.1 °F 82.1 °F 66.0 °F 62% 29.96 in 10.0 mi Calm Calm - N/A   Scattered Clouds
2:53 PM 80.6 °F 82.7 °F 66.2 °F 61% 29.95 in 10.0 mi Calm Calm - N/A   Clear
3:53 PM 82.9 °F 85.8 °F 68.0 °F 60% 29.92 in 10.0 mi Calm Calm - N/A   Partly Cloudy
4:53 PM 82.0 °F 84.1 °F 66.0 °F 58% 29.91 in 10.0 mi South 3.5 mph - N/A   Clear
5:53 PM 80.1 °F 82.3 °F 66.9 °F 64% 29.92 in 10.0 mi South 4.6 mph - N/A   Scattered Clouds
6:53 PM 82.0 °F 84.5 °F 66.9 °F 60% 29.90 in 10.0 mi ESE 6.9 mph - N/A   Partly Cloudy
7:53 PM 79.0 °F - 66.9 °F 66% 29.90 in 10.0 mi SE 6.9 mph - N/A   Clear
8:53 PM 75.0 °F - 66.9 °F 76% 29.91 in 10.0 mi Calm Calm - N/A   Clear
9:53 PM 71.1 °F - 66.9 °F 87% 29.92 in 10.0 mi West 3.5 mph - N/A   Clear
10:53 PM 66.9 °F - 66.0 °F 97% 29.93 in 10.0 mi Calm Calm - N/A   Clear
11:53 PM 66.9 °F - 66.0 °F 97% 29.94 in 8.0 mi Calm Calm - N/A   Scattered Clouds